SAA272 SKBO-GOBD

Flight info

Callsign SAA272
Flight time 7h 38m
Altitude 35000
Route DCT MAVDA UW20 AUC DCT MIQ UN669 MEBUK/N0483F370 UN669 ELJEZ/M083F370 DCT 2150N DCT 2340N DCT 22N036W DCT ERNEK/N0484F370 DCT EVKAS DCT BVT DCT MOGSA DCT PIVSA DCT
Aircraft A346/H-SDE2E3FGHIJ3J4J5M1RWXY/LB1D1

Departure

Time 2026-04-25 13:28
Airport El Dorado International Airport (SKBO)

Arrival

Time 2026-04-25 21:07
Airport Blaise Diagne International Airport (GOBD)
Time Latitude Longitude Altitude Speed Heading
2026-04-25 12:23 4.69866 -74.14638 8379 ft 0 kts 106°
2026-04-25 12:58 4.69867 -74.14642 8379 ft 2 kts 107°
2026-04-25 12:58 4.69871 -74.14656 8378 ft 2 kts 107°
2026-04-25 12:58 4.69878 -74.14669 8378 ft 2 kts 132°
2026-04-25 12:58 4.69890 -74.14678 8378 ft 2 kts 155°
2026-04-25 12:59 4.69904 -74.14683 8378 ft 2 kts 176°
2026-04-25 12:59 4.69918 -74.14682 8378 ft 2 kts 197°
2026-04-25 12:59 4.69932 -74.14675 8378 ft 2 kts 218°
2026-04-25 12:59 4.69941 -74.14668 8379 ft 0 kts 220°
2026-04-25 13:00 4.69933 -74.14674 8378 ft 2 kts 215°
2026-04-25 13:00 4.69928 -74.14677 8378 ft 0 kts 214°
2026-04-25 13:06 4.69922 -74.14681 8378 ft 3 kts 214°
2026-04-25 13:06 4.69871 -74.14717 8378 ft 14 kts 216°
2026-04-25 13:06 4.69786 -74.14784 8375 ft 14 kts 217°
2026-04-25 13:07 4.69759 -74.14848 8375 ft 9 kts 285°
2026-04-25 13:07 4.69794 -74.14897 8375 ft 8 kts 306°
2026-04-25 13:07 4.69832 -74.14951 8375 ft 9 kts 305°
2026-04-25 13:07 4.69873 -74.15004 8376 ft 9 kts 307°
2026-04-25 13:08 4.69916 -74.15061 8376 ft 10 kts 308°
2026-04-25 13:08 4.69961 -74.15119 8377 ft 10 kts 308°
2026-04-25 13:08 4.70007 -74.15180 8378 ft 11 kts 306°
2026-04-25 13:08 4.70055 -74.15248 8377 ft 12 kts 306°
2026-04-25 13:09 4.70107 -74.15319 8377 ft 13 kts 307°
2026-04-25 13:09 4.70164 -74.15394 8377 ft 13 kts 308°
2026-04-25 13:09 4.70224 -74.15471 8377 ft 14 kts 308°
2026-04-25 13:09 4.70282 -74.15545 8376 ft 15 kts 307°
2026-04-25 13:10 4.70351 -74.15639 8374 ft 18 kts 307°
2026-04-25 13:10 4.70434 -74.15745 8372 ft 20 kts 308°
2026-04-25 13:10 4.70529 -74.15868 8370 ft 23 kts 307°
2026-04-25 13:10 4.70631 -74.16003 8367 ft 24 kts 307°
2026-04-25 13:11 4.70733 -74.16139 8364 ft 24 kts 307°
2026-04-25 13:11 4.70834 -74.16273 8363 ft 23 kts 307°
2026-04-25 13:11 4.70931 -74.16400 8363 ft 21 kts 307°
2026-04-25 13:11 4.71010 -74.16507 8363 ft 18 kts 307°
2026-04-25 13:12 4.71057 -74.16570 8363 ft 9 kts 307°
2026-04-25 13:12 4.71068 -74.16585 8363 ft 0 kts 307°
2026-04-25 13:12 4.71072 -74.16589 8363 ft 1 kts 307°
2026-04-25 13:14 4.71076 -74.16595 8363 ft 1 kts 307°
2026-04-25 13:14 4.71089 -74.16612 8363 ft 4 kts 307°
2026-04-25 13:15 4.71106 -74.16634 8363 ft 2 kts 308°
2026-04-25 13:15 4.71107 -74.16634 8362 ft 0 kts 308°
2026-04-25 13:16 4.71107 -74.16635 8362 ft 0 kts 308°
2026-04-25 13:16 4.71112 -74.16641 8362 ft 2 kts 308°
2026-04-25 13:16 4.71141 -74.16680 8362 ft 11 kts 306°
2026-04-25 13:17 4.71175 -74.16725 8363 ft 4 kts 307°
2026-04-25 13:17 4.71192 -74.16749 8363 ft 3 kts 307°
2026-04-25 13:17 4.71199 -74.16759 8363 ft 0 kts 304°
2026-04-25 13:17 4.71201 -74.16762 8363 ft 0 kts 297°
2026-04-25 13:18 4.71203 -74.16768 8363 ft 1 kts 279°
2026-04-25 13:18 4.71201 -74.16782 8363 ft 2 kts 255°
2026-04-25 13:18 4.71194 -74.16795 8363 ft 0 kts 227°
2026-04-25 13:19 4.71189 -74.16800 8363 ft 4 kts 227°
2026-04-25 13:19 4.71169 -74.16818 8362 ft 6 kts 219°
2026-04-25 13:20 4.71163 -74.16823 8362 ft 0 kts 219°
2026-04-25 13:24 4.71162 -74.16824 8362 ft 0 kts 219°
2026-04-25 13:24 4.71141 -74.16840 8362 ft 7 kts 219°
2026-04-25 13:25 4.71080 -74.16880 8363 ft 11 kts 206°
2026-04-25 13:25 4.71028 -74.16884 8363 ft 5 kts 145°
2026-04-25 13:25 4.71023 -74.16878 8363 ft 0 kts 126°
2026-04-25 13:27 4.71012 -74.16864 8363 ft 17 kts 126°
2026-04-25 13:27 4.70782 -74.16559 8360 ft 90 kts 128°
2026-04-25 13:27 4.70268 -74.15887 8371 ft 150 kts 127°
2026-04-25 13:27 4.69531 -74.14907 8376 ft 200 kts 127°
2026-04-25 13:28 4.68659 -74.13779 8837 ft 204 kts 127°
2026-04-25 13:28 4.68058 -74.13051 9187 ft 205 kts 134°
2026-04-25 13:28 4.66310 -74.12450 9849 ft 208 kts 193°
2026-04-25 13:28 4.65057 -74.13093 10242 ft 207 kts 227°
2026-04-25 13:29 4.64309 -74.14338 10456 ft 211 kts 248°
2026-04-25 13:29 4.63734 -74.15732 10643 ft 220 kts 248°
2026-04-25 13:29 4.63133 -74.17168 10841 ft 231 kts 248°
2026-04-25 13:30 4.62228 -74.20361 11200 ft 254 kts 281°
2026-04-25 13:30 4.62687 -74.22112 11461 ft 267 kts 290°
2026-04-25 13:30 4.63326 -74.23921 11731 ft 282 kts 291°
2026-04-25 13:31 4.64465 -74.27839 12356 ft 307 kts 269°
2026-04-25 13:31 4.64022 -74.29932 12958 ft 308 kts 245°
2026-04-25 13:31 4.62981 -74.31793 13492 ft 310 kts 238°
2026-04-25 13:31 4.61785 -74.33612 13960 ft 315 kts 237°
2026-04-25 13:32 4.60547 -74.35432 14467 ft 318 kts 236°
2026-04-25 13:32 4.59286 -74.37266 14954 ft 320 kts 236°
2026-04-25 13:32 4.58022 -74.39087 15395 ft 323 kts 236°
2026-04-25 13:32 4.56476 -74.40774 15673 ft 335 kts 213°
2026-04-25 13:33 4.54283 -74.41619 15897 ft 346 kts 185°
2026-04-25 13:33 4.51889 -74.41367 16152 ft 354 kts 158°
2026-04-25 13:33 4.49794 -74.40035 16414 ft 362 kts 131°
2026-04-25 13:33 4.48810 -74.38672 16603 ft 366 kts 115°
2026-04-25 13:34 4.48203 -74.35326 16977 ft 374 kts 81°
2026-04-25 13:34 4.49046 -74.32864 17235 ft 380 kts 57°
2026-04-25 13:34 4.50626 -74.30697 17486 ft 390 kts 51°
2026-04-25 13:34 4.52307 -74.28539 17712 ft 402 kts 51°
2026-04-25 13:35 4.54045 -74.26273 17937 ft 413 kts 52°
2026-04-25 13:35 4.55776 -74.23964 18292 ft 419 kts 52°
2026-04-25 13:35 4.57515 -74.21613 18765 ft 421 kts 53°
2026-04-25 13:35 4.59261 -74.19230 19222 ft 423 kts 53°
2026-04-25 13:36 4.60996 -74.16848 19624 ft 426 kts 53°
2026-04-25 13:36 4.62755 -74.14420 20013 ft 430 kts 53°
2026-04-25 13:36 4.64533 -74.11961 20422 ft 433 kts 53°
2026-04-25 13:36 4.66291 -74.09526 20845 ft 435 kts 53°
2026-04-25 13:37 4.68069 -74.07062 21242 ft 438 kts 53°
2026-04-25 13:37 4.69857 -74.04582 21608 ft 441 kts 53°
2026-04-25 13:37 4.71674 -74.02062 21980 ft 444 kts 53°
2026-04-25 13:37 4.73479 -73.99559 22334 ft 448 kts 53°
2026-04-25 13:38 4.75307 -73.97021 22710 ft 450 kts 53°
2026-04-25 13:38 4.77141 -73.94479 23080 ft 453 kts 53°
2026-04-25 13:38 4.79002 -73.91897 23461 ft 455 kts 53°
2026-04-25 13:38 4.80844 -73.89342 23852 ft 457 kts 53°
2026-04-25 13:39 4.82097 -73.87601 24108 ft 459 kts 54°
2026-04-25 13:39 4.84609 -73.84116 24468 ft 463 kts 54°
2026-04-25 13:39 4.86488 -73.81503 24484 ft 462 kts 54°
2026-04-25 13:39 4.88354 -73.78909 24486 ft 462 kts 54°
2026-04-25 13:40 4.90245 -73.76283 24494 ft 462 kts 54°
2026-04-25 13:40 4.92129 -73.73665 24490 ft 460 kts 54°
2026-04-25 13:40 4.93990 -73.71079 24479 ft 460 kts 54°
2026-04-25 13:40 4.95867 -73.68469 24477 ft 459 kts 54°
2026-04-25 13:41 4.97716 -73.65899 24472 ft 460 kts 54°
2026-04-25 13:41 4.99586 -73.63302 24452 ft 458 kts 54°
2026-04-25 13:41 5.01450 -73.60712 24437 ft 458 kts 54°
2026-04-25 13:41 5.03313 -73.58122 24426 ft 458 kts 54°
2026-04-25 13:42 5.05197 -73.55502 24417 ft 458 kts 54°
2026-04-25 13:42 5.07041 -73.52936 24408 ft 459 kts 54°
2026-04-25 13:42 5.08919 -73.50324 24399 ft 458 kts 54°
2026-04-25 13:42 5.10783 -73.47734 24397 ft 458 kts 54°
2026-04-25 13:43 5.12665 -73.45138 24397 ft 457 kts 54°
2026-04-25 13:43 5.14520 -73.42576 24400 ft 457 kts 54°
2026-04-25 13:43 5.16381 -73.40002 24401 ft 456 kts 54°
2026-04-25 13:43 5.18243 -73.37420 24404 ft 456 kts 54°
2026-04-25 13:44 5.20111 -73.34827 24410 ft 456 kts 54°
2026-04-25 13:44 5.21947 -73.32264 24413 ft 455 kts 55°
2026-04-25 13:44 5.23808 -73.29658 24418 ft 456 kts 55°
2026-04-25 13:44 5.25634 -73.27105 24416 ft 456 kts 55°
2026-04-25 13:45 5.26865 -73.25386 24418 ft 456 kts 55°
2026-04-25 13:45 5.29354 -73.21915 24429 ft 457 kts 55°
2026-04-25 13:45 5.31207 -73.19334 24724 ft 461 kts 55°
2026-04-25 13:45 5.33071 -73.16737 25180 ft 461 kts 55°
2026-04-25 13:46 5.34961 -73.14107 25571 ft 463 kts 56°
2026-04-25 13:46 5.36850 -73.11476 25943 ft 466 kts 55°
2026-04-25 13:46 5.38744 -73.08834 26293 ft 468 kts 56°
2026-04-25 13:46 5.40650 -73.06175 26641 ft 471 kts 56°
2026-04-25 13:47 5.42555 -73.03518 26995 ft 473 kts 56°
2026-04-25 13:47 5.44498 -73.00808 27359 ft 475 kts 56°
2026-04-25 13:47 5.46431 -72.98115 27698 ft 478 kts 56°
2026-04-25 13:47 5.48360 -72.95428 28030 ft 480 kts 56°
2026-04-25 13:48 5.50332 -72.92677 28348 ft 483 kts 56°
2026-04-25 13:48 5.52291 -72.89945 28640 ft 486 kts 57°
2026-04-25 13:48 5.54274 -72.87176 28967 ft 488 kts 56°
2026-04-25 13:48 5.56241 -72.84429 29432 ft 487 kts 56°
2026-04-25 13:49 5.58210 -72.81681 29970 ft 485 kts 56°
2026-04-25 13:49 5.60166 -72.78952 30466 ft 483 kts 56°
2026-04-25 13:49 5.62145 -72.76193 30964 ft 481 kts 57°
2026-04-25 13:49 5.64069 -72.73508 31459 ft 480 kts 57°
2026-04-25 13:50 5.66023 -72.70782 31963 ft 477 kts 57°
2026-04-25 13:50 5.67953 -72.68085 32437 ft 476 kts 57°
2026-04-25 13:50 5.69879 -72.65395 32903 ft 474 kts 57°
2026-04-25 13:50 5.71806 -72.62702 33395 ft 473 kts 57°
2026-04-25 13:51 5.73745 -72.59994 33867 ft 472 kts 57°
2026-04-25 13:51 5.75657 -72.57320 34242 ft 472 kts 57°
2026-04-25 13:51 5.77587 -72.54617 34548 ft 474 kts 57°
2026-04-25 13:51 5.79506 -72.51932 34836 ft 475 kts 57°
2026-04-25 13:52 5.81453 -72.49208 35127 ft 476 kts 57°
2026-04-25 13:52 5.83381 -72.46513 35354 ft 478 kts 57°
2026-04-25 13:52 5.85334 -72.43784 35372 ft 478 kts 57°
2026-04-25 13:53 5.89212 -72.38361 35342 ft 479 kts 57°
2026-04-25 13:53 5.93106 -72.32908 35327 ft 478 kts 57°
2026-04-25 13:54 5.97018 -72.27406 35309 ft 478 kts 57°
2026-04-25 13:54 6.00913 -72.21938 35279 ft 478 kts 57°
2026-04-25 13:55 6.04805 -72.16484 35242 ft 478 kts 57°
2026-04-25 13:55 6.08666 -72.11076 35226 ft 479 kts 57°
2026-04-25 13:56 6.12574 -72.05622 35194 ft 479 kts 57°
2026-04-25 13:56 6.16476 -72.00198 35131 ft 479 kts 57°
2026-04-25 13:57 6.20392 -71.94728 35088 ft 480 kts 57°
2026-04-25 13:57 6.24282 -71.89282 35069 ft 480 kts 57°
2026-04-25 13:58 6.28179 -71.83817 35054 ft 481 kts 57°
2026-04-25 13:58 6.32108 -71.78308 35041 ft 482 kts 57°
2026-04-25 13:59 6.36018 -71.72824 35027 ft 482 kts 57°
2026-04-25 13:59 6.39934 -71.67332 35022 ft 482 kts 57°
2026-04-25 14:00 6.43183 -71.62767 35016 ft 483 kts 57°
2026-04-25 14:00 6.47748 -71.56352 35008 ft 483 kts 57°
2026-04-25 14:01 6.51680 -71.50827 35002 ft 484 kts 57°
2026-04-25 14:01 6.55597 -71.45322 34991 ft 484 kts 57°
2026-04-25 14:02 6.59512 -71.39820 34979 ft 484 kts 57°
2026-04-25 14:02 6.63452 -71.34277 34976 ft 484 kts 57°
2026-04-25 14:03 6.67364 -71.28748 34972 ft 484 kts 57°
2026-04-25 14:03 6.71279 -71.23219 34970 ft 484 kts 57°
2026-04-25 14:04 6.75219 -71.17669 34970 ft 486 kts 57°
2026-04-25 14:04 6.79143 -71.12141 34974 ft 486 kts 57°
2026-04-25 14:05 6.83052 -71.06637 34970 ft 485 kts 57°
2026-04-25 14:05 6.86990 -71.01090 34969 ft 485 kts 57°
2026-04-25 14:06 6.90949 -70.95507 34971 ft 484 kts 57°
2026-04-25 14:06 6.94860 -70.89990 34972 ft 485 kts 57°
2026-04-25 14:07 6.98783 -70.84454 34975 ft 485 kts 57°
2026-04-25 14:07 7.02728 -70.78885 34977 ft 485 kts 57°
2026-04-25 14:08 7.06788 -70.73464 34978 ft 487 kts 52°
2026-04-25 14:08 7.11366 -70.68426 34978 ft 488 kts 48°
2026-04-25 14:09 7.16122 -70.63522 34978 ft 489 kts 48°
2026-04-25 14:09 7.20879 -70.58594 34978 ft 489 kts 48°
2026-04-25 14:10 7.25621 -70.53661 34976 ft 489 kts 48°
2026-04-25 14:10 7.30370 -70.48709 34973 ft 490 kts 48°
2026-04-25 14:11 7.35104 -70.43767 34969 ft 490 kts 48°
2026-04-25 14:11 7.39821 -70.38841 34963 ft 490 kts 48°
2026-04-25 14:12 7.44576 -70.33872 34962 ft 490 kts 48°
2026-04-25 14:12 7.49328 -70.28876 34963 ft 491 kts 49°
2026-04-25 14:13 7.54036 -70.23933 34961 ft 491 kts 49°
2026-04-25 14:13 7.58797 -70.18947 34961 ft 493 kts 48°
2026-04-25 14:14 7.63542 -70.13978 34959 ft 492 kts 48°
2026-04-25 14:14 7.68309 -70.08991 34960 ft 492 kts 48°
2026-04-25 14:15 7.73053 -70.04025 34958 ft 493 kts 48°
2026-04-25 14:15 7.77824 -69.99027 34960 ft 493 kts 48°
2026-04-25 14:16 7.82573 -69.94052 34961 ft 494 kts 48°
2026-04-25 14:16 7.87337 -69.89061 34960 ft 495 kts 48°
2026-04-25 14:17 7.92114 -69.84051 34960 ft 495 kts 48°
2026-04-25 14:17 7.96908 -69.79025 34960 ft 496 kts 48°
2026-04-25 14:18 8.01678 -69.74021 34960 ft 496 kts 48°
2026-04-25 14:18 8.06458 -69.69004 34957 ft 495 kts 48°
2026-04-25 14:19 8.11250 -69.63979 34950 ft 495 kts 48°
2026-04-25 14:19 8.16061 -69.58961 34951 ft 495 kts 48°
2026-04-25 14:20 8.20873 -69.53928 34951 ft 496 kts 48°
2026-04-25 14:20 8.25653 -69.48912 34951 ft 496 kts 48°
2026-04-25 14:21 8.30457 -69.43863 34951 ft 496 kts 48°
2026-04-25 14:21 8.35212 -69.38863 34950 ft 496 kts 48°
2026-04-25 14:22 8.40031 -69.33791 34950 ft 496 kts 49°
2026-04-25 14:22 8.44794 -69.28747 34950 ft 496 kts 49°
2026-04-25 14:23 8.49598 -69.23665 34951 ft 496 kts 48°
2026-04-25 14:23 8.54379 -69.18620 34950 ft 497 kts 48°
2026-04-25 14:24 8.59158 -69.13582 34951 ft 498 kts 49°
2026-04-25 14:24 8.63975 -69.08503 34954 ft 497 kts 48°
2026-04-25 14:25 8.68749 -69.03469 34956 ft 497 kts 48°
2026-04-25 14:25 8.73568 -68.98384 34955 ft 497 kts 48°
2026-04-25 14:26 8.78382 -68.93304 34949 ft 498 kts 48°
2026-04-25 14:26 8.83166 -68.88252 34946 ft 499 kts 48°
2026-04-25 14:27 8.87954 -68.83194 34946 ft 498 kts 48°
2026-04-25 14:27 8.92738 -68.78136 34947 ft 498 kts 48°
2026-04-25 14:28 8.97566 -68.73032 34948 ft 500 kts 48°
2026-04-25 14:28 9.02349 -68.67971 34950 ft 500 kts 48°
2026-04-25 14:29 9.07178 -68.62862 34951 ft 501 kts 48°
2026-04-25 14:29 9.11999 -68.57767 34954 ft 501 kts 48°
2026-04-25 14:30 9.16847 -68.52669 34954 ft 501 kts 48°
2026-04-25 14:30 9.24114 -68.44990 34959 ft 501 kts 48°
2026-04-25 14:31 9.28934 -68.39883 34960 ft 502 kts 48°
2026-04-25 14:31 9.33740 -68.34786 34959 ft 502 kts 48°
2026-04-25 14:32 9.38581 -68.29623 34960 ft 502 kts 48°
2026-04-25 14:32 9.43379 -68.24506 34962 ft 503 kts 48°
2026-04-25 14:33 9.48230 -68.19346 34969 ft 503 kts 47°
2026-04-25 14:33 9.53053 -68.14223 34972 ft 503 kts 48°
2026-04-25 14:34 9.57873 -68.09098 34972 ft 503 kts 48°
2026-04-25 14:34 9.62760 -68.03900 34976 ft 503 kts 47°
2026-04-25 14:35 9.67571 -67.98782 34983 ft 503 kts 47°
2026-04-25 14:35 9.72405 -67.93639 34991 ft 502 kts 47°
2026-04-25 14:36 9.77199 -67.88535 35011 ft 502 kts 47°
2026-04-25 14:36 9.82021 -67.83399 35022 ft 502 kts 47°
2026-04-25 14:37 9.86881 -67.78220 35039 ft 502 kts 47°
2026-04-25 14:37 9.91679 -67.73105 35056 ft 502 kts 47°
2026-04-25 14:38 9.96501 -67.67960 35068 ft 502 kts 48°
2026-04-25 14:38 10.01308 -67.62832 35072 ft 501 kts 47°
2026-04-25 14:39 10.06125 -67.57690 35064 ft 501 kts 47°
2026-04-25 14:39 10.10937 -67.52552 35054 ft 501 kts 47°
2026-04-25 14:40 10.15766 -67.47424 35050 ft 501 kts 47°
2026-04-25 14:40 10.20572 -67.42305 35049 ft 502 kts 48°
2026-04-25 14:41 10.25424 -67.37118 35050 ft 502 kts 48°
2026-04-25 14:41 10.30219 -67.31974 35042 ft 503 kts 48°
2026-04-25 14:42 10.34239 -67.27643 35039 ft 502 kts 48°
2026-04-25 14:42 10.39831 -67.21641 35030 ft 503 kts 48°
2026-04-25 14:43 10.44656 -67.16465 35034 ft 503 kts 48°
2026-04-25 14:43 10.49451 -67.11319 35049 ft 503 kts 48°
2026-04-25 14:44 10.54257 -67.06158 35058 ft 503 kts 48°
2026-04-25 14:44 10.59051 -67.00933 35049 ft 503 kts 50°
2026-04-25 14:45 10.63366 -66.95371 35034 ft 503 kts 57°
2026-04-25 14:45 10.67311 -66.89476 35015 ft 503 kts 58°
2026-04-25 14:46 10.71217 -66.83571 34993 ft 503 kts 58°
2026-04-25 14:46 10.75139 -66.77651 34971 ft 504 kts 58°
2026-04-25 14:47 10.78417 -66.72708 34962 ft 504 kts 58°
2026-04-25 14:47 10.82984 -66.65823 34958 ft 504 kts 58°
2026-04-25 14:48 10.86915 -66.59893 34957 ft 504 kts 58°
2026-04-25 14:48 10.90826 -66.53989 34957 ft 505 kts 58°
2026-04-25 14:49 10.94758 -66.48049 34956 ft 505 kts 58°
2026-04-25 14:49 10.98667 -66.42139 34949 ft 505 kts 58°
2026-04-25 14:50 11.02580 -66.36221 34949 ft 506 kts 58°
2026-04-25 14:50 11.06597 -66.30278 34947 ft 506 kts 57°
2026-04-25 14:51 11.10597 -66.24398 34952 ft 506 kts 57°
2026-04-25 14:51 11.14624 -66.18520 34949 ft 506 kts 57°
2026-04-25 14:52 11.18654 -66.12614 34950 ft 506 kts 57°
2026-04-25 14:52 11.21986 -66.07709 34947 ft 506 kts 57°
2026-04-25 14:53 11.26645 -66.00839 34938 ft 507 kts 57°
2026-04-25 14:53 11.30660 -65.94914 34942 ft 508 kts 57°
2026-04-25 14:54 11.34697 -65.88950 34939 ft 507 kts 57°
2026-04-25 14:54 11.38687 -65.83048 34942 ft 507 kts 57°
2026-04-25 14:55 11.42683 -65.77133 34942 ft 506 kts 57°
2026-04-25 14:55 11.46687 -65.71220 34942 ft 507 kts 57°
2026-04-25 14:56 11.50679 -65.65321 34944 ft 507 kts 57°
2026-04-25 14:56 11.54686 -65.59386 34945 ft 507 kts 57°
2026-04-25 14:57 11.58657 -65.53493 34944 ft 507 kts 57°
2026-04-25 14:57 11.62661 -65.47547 34946 ft 507 kts 57°
2026-04-25 14:58 11.66633 -65.41644 34944 ft 507 kts 57°
2026-04-25 14:58 11.70695 -65.35719 34941 ft 507 kts 56°
2026-04-25 14:59 11.74739 -65.29884 34939 ft 507 kts 57°
2026-04-25 14:59 11.78809 -65.23983 34938 ft 508 kts 56°
2026-04-25 15:00 11.82884 -65.18076 34936 ft 509 kts 57°
2026-04-25 15:00 11.86970 -65.12155 34936 ft 509 kts 56°
2026-04-25 15:01 11.91040 -65.06255 34933 ft 509 kts 57°
2026-04-25 15:01 11.95126 -65.00326 34935 ft 509 kts 56°
2026-04-25 15:02 11.99198 -64.94415 34934 ft 509 kts 57°
2026-04-25 15:02 12.03285 -64.88479 34946 ft 511 kts 57°
2026-04-25 15:03 12.07370 -64.82538 34956 ft 512 kts 57°
2026-04-25 15:03 12.11458 -64.76599 34953 ft 512 kts 56°
2026-04-25 15:04 12.15560 -64.70672 34956 ft 512 kts 57°
2026-04-25 15:04 12.19651 -64.64730 34960 ft 512 kts 57°
2026-04-25 15:05 12.23728 -64.58786 34961 ft 512 kts 57°
2026-04-25 15:06 12.29873 -64.49813 34959 ft 513 kts 57°
2026-04-25 15:06 12.33957 -64.43841 34952 ft 512 kts 57°
2026-04-25 15:07 12.38042 -64.37860 34944 ft 512 kts 57°
2026-04-25 15:07 12.42073 -64.31898 34942 ft 512 kts 57°
2026-04-25 15:08 12.46092 -64.25909 34940 ft 511 kts 57°
2026-04-25 15:08 12.50129 -64.19903 34940 ft 510 kts 57°
2026-04-25 15:09 12.54159 -64.13915 34944 ft 510 kts 57°
2026-04-25 15:09 12.60204 -64.04936 34942 ft 510 kts 57°
2026-04-25 15:10 12.64205 -63.98983 34943 ft 510 kts 57°
2026-04-25 15:11 12.70262 -63.89964 34947 ft 511 kts 57°
2026-04-25 15:11 12.74272 -63.83984 34947 ft 511 kts 57°
2026-04-25 15:12 12.80299 -63.74990 34949 ft 510 kts 57°
2026-04-25 15:12 12.83639 -63.69994 34950 ft 510 kts 57°
2026-04-25 15:13 12.90758 -63.60341 34954 ft 511 kts 52°
2026-04-25 15:14 12.95309 -63.54708 34954 ft 511 kts 51°
2026-04-25 15:14 12.99814 -63.49117 34956 ft 512 kts 52°
2026-04-25 15:15 13.04347 -63.43477 34954 ft 513 kts 52°
2026-04-25 15:15 13.08907 -63.37791 34955 ft 513 kts 52°
2026-04-25 15:16 13.13454 -63.32133 34955 ft 513 kts 52°
2026-04-25 15:16 13.20253 -63.23646 34958 ft 513 kts 52°
2026-04-25 15:17 13.27016 -63.15188 34960 ft 513 kts 52°
2026-04-25 15:18 13.31573 -63.09486 34957 ft 513 kts 52°
2026-04-25 15:18 13.38359 -63.00989 34963 ft 514 kts 52°
2026-04-25 15:19 13.42128 -62.96267 34962 ft 514 kts 52°
2026-04-25 15:19 13.47435 -62.89613 34963 ft 514 kts 52°
2026-04-25 15:20 13.51966 -62.83927 34965 ft 514 kts 52°
2026-04-25 15:20 13.56501 -62.78232 34967 ft 515 kts 52°
2026-04-25 15:21 13.61034 -62.72536 34969 ft 515 kts 52°
2026-04-25 15:21 13.65608 -62.66784 34969 ft 515 kts 52°
2026-04-25 15:22 13.70138 -62.61084 34969 ft 515 kts 52°
2026-04-25 15:22 13.74686 -62.55358 34970 ft 517 kts 52°
2026-04-25 15:23 13.79200 -62.49670 34971 ft 517 kts 52°
2026-04-25 15:23 13.83758 -62.43922 34975 ft 516 kts 52°
2026-04-25 15:24 13.88315 -62.38177 34971 ft 516 kts 52°
2026-04-25 15:24 13.92089 -62.33410 34969 ft 517 kts 52°
2026-04-25 15:25 13.97368 -62.26707 34964 ft 517 kts 52°
2026-04-25 15:25 14.01911 -62.20946 34961 ft 518 kts 52°
2026-04-25 15:26 14.06475 -62.15168 34958 ft 517 kts 52°
2026-04-25 15:26 14.11013 -62.09422 34953 ft 518 kts 52°
2026-04-25 15:27 14.15561 -62.03701 34955 ft 518 kts 52°
2026-04-25 15:28 14.22386 -61.95080 34954 ft 518 kts 52°
2026-04-25 15:28 14.26948 -61.89292 34954 ft 518 kts 52°
2026-04-25 15:29 14.31508 -61.83501 34959 ft 518 kts 52°
2026-04-25 15:29 14.36060 -61.77715 34960 ft 519 kts 52°
2026-04-25 15:30 14.40590 -61.71952 34961 ft 519 kts 52°
2026-04-25 15:30 14.45134 -61.66169 34963 ft 519 kts 52°
2026-04-25 15:31 14.49698 -61.60355 34963 ft 518 kts 52°
2026-04-25 15:31 14.54222 -61.54587 34962 ft 518 kts 52°
2026-04-25 15:32 14.58742 -61.48821 34963 ft 519 kts 52°
2026-04-25 15:32 14.63304 -61.42995 34964 ft 519 kts 52°
2026-04-25 15:33 14.70084 -61.34330 34965 ft 520 kts 52°
2026-04-25 15:33 14.74618 -61.28498 34967 ft 520 kts 52°
2026-04-25 15:34 14.79146 -61.22686 34967 ft 520 kts 52°
2026-04-25 15:34 14.82933 -61.17833 34971 ft 520 kts 52°
2026-04-25 15:35 14.90518 -61.08107 34972 ft 521 kts 52°
2026-04-25 15:36 14.97322 -60.99384 34974 ft 521 kts 52°
2026-04-25 15:36 15.01870 -60.93540 34976 ft 522 kts 52°
2026-04-25 15:37 15.06420 -60.87691 34976 ft 521 kts 52°
2026-04-25 15:37 15.10964 -60.81847 34975 ft 522 kts 51°
2026-04-25 15:38 15.15534 -60.76006 34977 ft 522 kts 51°
2026-04-25 15:38 15.20066 -60.70191 34977 ft 522 kts 52°
2026-04-25 15:39 15.24593 -60.64362 34978 ft 522 kts 52°
2026-04-25 15:39 15.29143 -60.58491 34976 ft 522 kts 52°
2026-04-25 15:40 15.32926 -60.53604 34978 ft 522 kts 52°
2026-04-25 15:40 15.38208 -60.46777 34977 ft 522 kts 52°
2026-04-25 15:41 15.42747 -60.40904 34977 ft 522 kts 52°
2026-04-25 15:41 15.47284 -60.35031 34977 ft 522 kts 51°
2026-04-25 15:42 15.51813 -60.29136 34975 ft 522 kts 52°
2026-04-25 15:42 15.56338 -60.23244 34976 ft 522 kts 52°
2026-04-25 15:43 15.60881 -60.17341 34976 ft 522 kts 52°
2026-04-25 15:43 15.65420 -60.11445 34976 ft 522 kts 52°
2026-04-25 15:44 15.69943 -60.05565 34977 ft 522 kts 52°
2026-04-25 15:44 15.74477 -59.99668 34984 ft 522 kts 52°
2026-04-25 15:45 15.78999 -59.93784 34990 ft 522 kts 52°
2026-04-25 15:45 15.82781 -59.88855 34992 ft 522 kts 52°
2026-04-25 15:46 15.88079 -59.81945 34994 ft 522 kts 52°
2026-04-25 15:46 15.92593 -59.76053 34993 ft 523 kts 52°
2026-04-25 15:47 15.97110 -59.70156 34994 ft 523 kts 52°
2026-04-25 15:47 16.01631 -59.64244 34994 ft 523 kts 52°
2026-04-25 15:48 16.06181 -59.58292 34996 ft 523 kts 52°
2026-04-25 15:48 16.10698 -59.52377 34995 ft 523 kts 52°
2026-04-25 15:49 16.15248 -59.46446 34996 ft 522 kts 51°
2026-04-25 15:49 16.19776 -59.40532 34996 ft 523 kts 51°
2026-04-25 15:50 16.24318 -59.34599 34994 ft 523 kts 52°
2026-04-25 15:50 16.28833 -59.28651 34995 ft 523 kts 52°
2026-04-25 15:51 16.32590 -59.23696 34994 ft 524 kts 52°
2026-04-25 15:51 16.37858 -59.16756 34995 ft 524 kts 52°
2026-04-25 15:52 16.42380 -59.10799 34994 ft 524 kts 52°
2026-04-25 15:52 16.46912 -59.04828 34993 ft 524 kts 52°
2026-04-25 15:53 16.51451 -58.98843 34994 ft 524 kts 52°
2026-04-25 15:53 16.55946 -58.92912 34993 ft 523 kts 52°
2026-04-25 15:54 16.60482 -58.86919 34993 ft 524 kts 52°
2026-04-25 15:54 16.64995 -58.80951 34993 ft 525 kts 52°
2026-04-25 15:55 16.69504 -58.74985 34993 ft 525 kts 52°
2026-04-25 15:55 16.74035 -58.68983 34996 ft 525 kts 52°
2026-04-25 15:56 16.78574 -58.62968 34997 ft 526 kts 52°
2026-04-25 15:56 16.83085 -58.56982 34998 ft 526 kts 52°
2026-04-25 15:57 16.87601 -58.50986 35001 ft 526 kts 52°
2026-04-25 15:57 16.92129 -58.44968 35002 ft 525 kts 52°
2026-04-25 15:58 16.96629 -58.38981 35004 ft 526 kts 52°
2026-04-25 15:58 17.01137 -58.32974 35000 ft 526 kts 52°
2026-04-25 15:59 17.05632 -58.26951 35002 ft 526 kts 52°
2026-04-25 15:59 17.10132 -58.20934 35004 ft 526 kts 52°
2026-04-25 16:00 17.13906 -58.15921 35007 ft 527 kts 52°
2026-04-25 16:00 17.19199 -58.08886 35011 ft 528 kts 52°
2026-04-25 16:01 17.23727 -58.02844 35009 ft 529 kts 52°
2026-04-25 16:01 17.28291 -57.96736 35005 ft 528 kts 52°
2026-04-25 16:02 17.32809 -57.90681 35005 ft 528 kts 52°
2026-04-25 16:02 17.37323 -57.84630 35004 ft 528 kts 52°
2026-04-25 16:03 17.41826 -57.78584 35008 ft 529 kts 52°
2026-04-25 16:03 17.46346 -57.72515 35006 ft 529 kts 52°
2026-04-25 16:04 17.50864 -57.66434 35005 ft 529 kts 52°
2026-04-25 16:04 17.55411 -57.60313 35004 ft 529 kts 52°
2026-04-25 16:05 17.59936 -57.54207 35002 ft 530 kts 51°
2026-04-25 16:06 17.66744 -57.45030 35003 ft 530 kts 51°
2026-04-25 16:06 17.71301 -57.38892 35309 ft 533 kts 51°
2026-04-25 16:06 17.73561 -57.35840 35787 ft 530 kts 51°
2026-04-25 16:07 17.75830 -57.32768 36233 ft 528 kts 52°
2026-04-25 16:07 17.77321 -57.30741 36470 ft 527 kts 52°
2026-04-25 16:07 17.80297 -57.26694 36835 ft 527 kts 52°
2026-04-25 16:07 17.82526 -57.23665 36986 ft 529 kts 51°
2026-04-25 16:08 17.84791 -57.20593 36993 ft 529 kts 51°
2026-04-25 16:08 17.89273 -57.14518 36996 ft 529 kts 51°
2026-04-25 16:09 17.93796 -57.08384 36996 ft 529 kts 51°
2026-04-25 16:09 17.98225 -57.02166 36996 ft 530 kts 56°
2026-04-25 16:10 18.02000 -56.95575 36995 ft 530 kts 63°
2026-04-25 16:10 18.05218 -56.88602 36996 ft 529 kts 65°
2026-04-25 16:11 18.08340 -56.81638 37000 ft 529 kts 65°
2026-04-25 16:11 18.11504 -56.74640 37000 ft 529 kts 65°
2026-04-25 16:12 18.14690 -56.67674 37002 ft 529 kts 65°
2026-04-25 16:12 18.17862 -56.60699 37004 ft 530 kts 65°
2026-04-25 16:13 18.21023 -56.53717 37007 ft 530 kts 64°
2026-04-25 16:13 18.24179 -56.46738 37005 ft 531 kts 64°
2026-04-25 16:14 18.27350 -56.39710 37012 ft 531 kts 65°
2026-04-25 16:14 18.30504 -56.32707 37007 ft 530 kts 65°
2026-04-25 16:15 18.33657 -56.25668 37015 ft 531 kts 65°
2026-04-25 16:15 18.36808 -56.18638 37018 ft 530 kts 65°
2026-04-25 16:16 18.39936 -56.11668 37021 ft 530 kts 65°
2026-04-25 16:16 18.43079 -56.04660 37019 ft 531 kts 65°
2026-04-25 16:17 18.46241 -55.97601 37018 ft 531 kts 65°
2026-04-25 16:17 18.49381 -55.90585 37018 ft 530 kts 65°
2026-04-25 16:18 18.52498 -55.83611 37020 ft 531 kts 65°
2026-04-25 16:18 18.55653 -55.76544 37019 ft 531 kts 65°
2026-04-25 16:19 18.58789 -55.69510 37020 ft 531 kts 65°
2026-04-25 16:19 18.61907 -55.62509 37021 ft 531 kts 64°
2026-04-25 16:20 18.66605 -55.51941 37023 ft 531 kts 65°
2026-04-25 16:21 18.71303 -55.41359 37024 ft 531 kts 65°
2026-04-25 16:21 18.74435 -55.34292 37025 ft 531 kts 65°
2026-04-25 16:22 18.77526 -55.27277 37024 ft 531 kts 65°
2026-04-25 16:22 18.80651 -55.20184 37028 ft 531 kts 65°
2026-04-25 16:23 18.83768 -55.13117 37031 ft 531 kts 65°
2026-04-25 16:23 18.86882 -55.06055 37033 ft 531 kts 65°
2026-04-25 16:24 18.89988 -54.99003 37033 ft 532 kts 65°
2026-04-25 16:24 18.93107 -54.91913 37035 ft 531 kts 64°
2026-04-25 16:25 18.96212 -54.84851 37032 ft 531 kts 65°
2026-04-25 16:25 18.99311 -54.77790 37030 ft 532 kts 65°
2026-04-25 16:26 19.02408 -54.70726 37021 ft 532 kts 65°
2026-04-25 16:26 19.05532 -54.63587 37018 ft 532 kts 65°
2026-04-25 16:27 19.08623 -54.56519 37023 ft 531 kts 65°
2026-04-25 16:27 19.11711 -54.49473 37026 ft 531 kts 64°
2026-04-25 16:28 19.14836 -54.42382 37024 ft 532 kts 64°
2026-04-25 16:28 19.17956 -54.35252 37028 ft 532 kts 64°
2026-04-25 16:29 19.21049 -54.28125 37027 ft 532 kts 65°
2026-04-25 16:29 19.24126 -54.21016 37031 ft 533 kts 65°
2026-04-25 16:30 19.27202 -54.13918 37031 ft 533 kts 65°
2026-04-25 16:30 19.30295 -54.06780 37033 ft 533 kts 65°
2026-04-25 16:31 19.33379 -53.99655 37030 ft 533 kts 64°
2026-04-25 16:31 19.36460 -53.92529 37021 ft 534 kts 64°
2026-04-25 16:32 19.39556 -53.85359 37021 ft 534 kts 65°
2026-04-25 16:32 19.42643 -53.78199 37023 ft 534 kts 65°
2026-04-25 16:33 19.45718 -53.71057 37025 ft 534 kts 64°
2026-04-25 16:33 19.48800 -53.63891 37032 ft 534 kts 65°
2026-04-25 16:34 19.51863 -53.56760 37035 ft 534 kts 65°
2026-04-25 16:34 19.54941 -53.49586 37038 ft 534 kts 65°
2026-04-25 16:35 19.57995 -53.42453 37041 ft 535 kts 64°
2026-04-25 16:35 19.61070 -53.35266 37040 ft 534 kts 65°
2026-04-25 16:36 19.64119 -53.28108 37041 ft 534 kts 65°
2026-04-25 16:36 19.67178 -53.20912 37047 ft 535 kts 65°
2026-04-25 16:37 19.70230 -53.13741 37050 ft 535 kts 65°
2026-04-25 16:37 19.73280 -53.06576 37050 ft 535 kts 65°
2026-04-25 16:38 19.76358 -52.99334 37053 ft 536 kts 65°
2026-04-25 16:38 19.79413 -52.92133 37055 ft 536 kts 65°
2026-04-25 16:39 19.82467 -52.84927 37057 ft 535 kts 65°
2026-04-25 16:39 19.85508 -52.77746 37054 ft 535 kts 65°
2026-04-25 16:40 19.88564 -52.70520 37056 ft 535 kts 65°
2026-04-25 16:40 19.91609 -52.63306 37050 ft 535 kts 65°
2026-04-25 16:41 19.94638 -52.56121 37046 ft 536 kts 65°
2026-04-25 16:41 19.99210 -52.45260 37048 ft 536 kts 65°
2026-04-25 16:42 20.02250 -52.38020 37050 ft 536 kts 65°
2026-04-25 16:42 20.05282 -52.30786 37050 ft 537 kts 65°
2026-04-25 16:43 20.08314 -52.23522 37051 ft 537 kts 65°
2026-04-25 16:43 20.11339 -52.16300 37052 ft 537 kts 65°
2026-04-25 16:44 20.14411 -52.09026 37054 ft 537 kts 65°
2026-04-25 16:44 20.17471 -52.01733 37056 ft 537 kts 65°
2026-04-25 16:45 20.20505 -51.94465 37057 ft 537 kts 65°
2026-04-25 16:45 20.23522 -51.87217 37057 ft 536 kts 65°
2026-04-25 16:46 20.26516 -51.80013 37057 ft 536 kts 65°
2026-04-25 16:46 20.29035 -51.73946 37055 ft 536 kts 65°
2026-04-25 16:47 20.32551 -51.65465 37053 ft 537 kts 65°
2026-04-25 16:47 20.35583 -51.58143 37053 ft 537 kts 65°
2026-04-25 16:48 20.38604 -51.50829 37053 ft 537 kts 65°
2026-04-25 16:48 20.41601 -51.43573 37053 ft 538 kts 65°
2026-04-25 16:49 20.44609 -51.36278 37054 ft 538 kts 65°
2026-04-25 16:49 20.47611 -51.28960 37053 ft 538 kts 65°
2026-04-25 16:50 20.50587 -51.21693 37053 ft 538 kts 65°
2026-04-25 16:50 20.53586 -51.14378 37053 ft 538 kts 65°
2026-04-25 16:51 20.56581 -51.07070 37054 ft 538 kts 65°
2026-04-25 16:51 20.59083 -51.00959 37056 ft 538 kts 65°
2026-04-25 16:52 20.62571 -50.92424 37057 ft 538 kts 65°
2026-04-25 16:52 20.65545 -50.85137 37057 ft 539 kts 65°
2026-04-25 16:53 20.70041 -50.74104 37057 ft 539 kts 65°
2026-04-25 16:54 20.73010 -50.66802 37058 ft 539 kts 65°
2026-04-25 16:54 20.76002 -50.59433 37057 ft 540 kts 65°
2026-04-25 16:55 20.78989 -50.52065 37057 ft 540 kts 65°
2026-04-25 16:55 20.81953 -50.44747 37058 ft 541 kts 65°
2026-04-25 16:56 20.84933 -50.37373 37057 ft 540 kts 65°
2026-04-25 16:56 20.87905 -50.29997 37055 ft 541 kts 65°
2026-04-25 16:57 20.90855 -50.22647 37057 ft 541 kts 65°
2026-04-25 16:57 20.93826 -50.15263 37056 ft 540 kts 65°
2026-04-25 16:58 20.96781 -50.07913 37055 ft 541 kts 65°
2026-04-25 16:58 20.99609 -50.00458 37055 ft 542 kts 69°
2026-04-25 16:59 21.01717 -49.92717 37058 ft 543 kts 75°
2026-04-25 16:59 21.03508 -49.84880 37057 ft 543 kts 76°
2026-04-25 17:00 21.05303 -49.77003 37058 ft 543 kts 75°
2026-04-25 17:00 21.07098 -49.69193 37058 ft 544 kts 75°
2026-04-25 17:01 21.08922 -49.61284 37058 ft 544 kts 75°
2026-04-25 17:01 21.10731 -49.53452 37057 ft 544 kts 75°
2026-04-25 17:02 21.12565 -49.45625 37057 ft 544 kts 75°
2026-04-25 17:02 21.14388 -49.37751 37058 ft 544 kts 75°
2026-04-25 17:03 21.16183 -49.29910 37056 ft 543 kts 76°
2026-04-25 17:03 21.17967 -49.22061 37058 ft 543 kts 76°
2026-04-25 17:04 21.19744 -49.14241 37057 ft 542 kts 76°
2026-04-25 17:04 21.21520 -49.06426 37057 ft 542 kts 76°
2026-04-25 17:05 21.23302 -48.98562 37057 ft 542 kts 75°
2026-04-25 17:05 21.25962 -48.86804 37057 ft 542 kts 76°
2026-04-25 17:06 21.27724 -48.78980 37058 ft 542 kts 76°
2026-04-25 17:06 21.29479 -48.71175 37057 ft 542 kts 76°
2026-04-25 17:07 21.31245 -48.63304 37057 ft 542 kts 75°
2026-04-25 17:07 21.33000 -48.55464 37057 ft 542 kts 75°
2026-04-25 17:08 21.34745 -48.47646 37057 ft 542 kts 75°
2026-04-25 17:08 21.36489 -48.39819 37057 ft 542 kts 75°
2026-04-25 17:09 21.38236 -48.31957 37052 ft 541 kts 76°
2026-04-25 17:09 21.39970 -48.24106 37057 ft 542 kts 76°
2026-04-25 17:10 21.41707 -48.16237 37057 ft 542 kts 76°
2026-04-25 17:10 21.43443 -48.08364 37057 ft 542 kts 75°
2026-04-25 17:11 21.45174 -48.00498 37057 ft 543 kts 75°
2026-04-25 17:11 21.46901 -47.92639 37058 ft 543 kts 75°
2026-04-25 17:12 21.48630 -47.84752 37057 ft 543 kts 75°
2026-04-25 17:12 21.50353 -47.76877 37058 ft 543 kts 75°
2026-04-25 17:13 21.51787 -47.70301 37058 ft 543 kts 75°
2026-04-25 17:13 21.53781 -47.61143 37058 ft 542 kts 75°
2026-04-25 17:14 21.55492 -47.53258 37057 ft 542 kts 75°
2026-04-25 17:14 21.57192 -47.45419 37057 ft 543 kts 75°
2026-04-25 17:15 21.58889 -47.37564 37058 ft 542 kts 75°
2026-04-25 17:15 21.60591 -47.29647 37056 ft 542 kts 76°
2026-04-25 17:16 21.62274 -47.21789 37058 ft 542 kts 76°
2026-04-25 17:16 21.63958 -47.13922 37057 ft 542 kts 75°
2026-04-25 17:17 21.65641 -47.06053 37059 ft 543 kts 75°
2026-04-25 17:17 21.67331 -46.98135 37062 ft 542 kts 75°
2026-04-25 17:18 21.69015 -46.90225 37070 ft 542 kts 76°
2026-04-25 17:18 21.70684 -46.82365 37072 ft 543 kts 75°
2026-04-25 17:19 21.72361 -46.74456 37076 ft 542 kts 75°
2026-04-25 17:19 21.74033 -46.66542 37077 ft 543 kts 75°
2026-04-25 17:20 21.75703 -46.58624 37075 ft 544 kts 75°
2026-04-25 17:20 21.77365 -46.50728 37077 ft 543 kts 75°
2026-04-25 17:21 21.79020 -46.42838 37077 ft 543 kts 75°
2026-04-25 17:21 21.80675 -46.34934 37076 ft 543 kts 76°
2026-04-25 17:22 21.82050 -46.28322 37074 ft 542 kts 76°
2026-04-25 17:22 21.83965 -46.19087 37075 ft 543 kts 76°
2026-04-25 17:23 21.85609 -46.11160 37075 ft 543 kts 75°
2026-04-25 17:23 21.87246 -46.03261 37077 ft 543 kts 76°
2026-04-25 17:24 21.88880 -45.95348 37080 ft 543 kts 75°
2026-04-25 17:24 21.90511 -45.87441 37078 ft 543 kts 75°
2026-04-25 17:25 21.92142 -45.79511 37080 ft 543 kts 75°
2026-04-25 17:25 21.93760 -45.71611 37081 ft 543 kts 75°
2026-04-25 17:26 21.95385 -45.63673 37081 ft 542 kts 75°
2026-04-25 17:26 21.96991 -45.55803 37080 ft 543 kts 75°
2026-04-25 17:27 21.98612 -45.47845 37080 ft 543 kts 75°
2026-04-25 17:27 21.99951 -45.41253 37081 ft 543 kts 75°
2026-04-25 17:28 22.01828 -45.31979 37078 ft 543 kts 76°
2026-04-25 17:28 22.03420 -45.24051 37078 ft 543 kts 76°
2026-04-25 17:29 22.05019 -45.16096 37080 ft 543 kts 76°
2026-04-25 17:29 22.06606 -45.08177 37083 ft 543 kts 76°
2026-04-25 17:30 22.08207 -45.00189 37082 ft 543 kts 76°
2026-04-25 17:30 22.09800 -44.92218 37081 ft 543 kts 76°
2026-04-25 17:31 22.11407 -44.84257 37084 ft 544 kts 75°
2026-04-25 17:31 22.13009 -44.76345 37084 ft 544 kts 75°
2026-04-25 17:32 22.14598 -44.68377 37086 ft 544 kts 75°
2026-04-25 17:32 22.16178 -44.60393 37089 ft 544 kts 75°
2026-04-25 17:33 22.17754 -44.52411 37089 ft 544 kts 75°
2026-04-25 17:33 22.19321 -44.44438 37093 ft 544 kts 75°
2026-04-25 17:34 22.20889 -44.36445 37090 ft 544 kts 75°
2026-04-25 17:34 22.22439 -44.28488 37085 ft 544 kts 76°
2026-04-25 17:35 22.23992 -44.20492 37084 ft 544 kts 76°
2026-04-25 17:35 22.25540 -44.12511 37087 ft 544 kts 76°
2026-04-25 17:36 22.27082 -44.04564 37087 ft 544 kts 76°
2026-04-25 17:36 22.28626 -43.96584 37085 ft 545 kts 76°
2026-04-25 17:37 22.30166 -43.88589 37088 ft 545 kts 75°
2026-04-25 17:37 22.31708 -43.80577 37089 ft 545 kts 75°
2026-04-25 17:38 22.32983 -43.73936 37087 ft 545 kts 75°
2026-04-25 17:38 22.34772 -43.64591 37088 ft 544 kts 76°
2026-04-25 17:39 22.36296 -43.56595 37092 ft 544 kts 75°
2026-04-25 17:39 22.37813 -43.48628 37093 ft 545 kts 75°
2026-04-25 17:40 22.39328 -43.40641 37094 ft 544 kts 75°
2026-04-25 17:40 22.40843 -43.32627 37089 ft 544 kts 76°
2026-04-25 17:41 22.42342 -43.24647 37092 ft 544 kts 76°
2026-04-25 17:41 22.43836 -43.16684 37098 ft 544 kts 76°
2026-04-25 17:42 22.45340 -43.08649 37101 ft 544 kts 76°
2026-04-25 17:42 22.46831 -43.00676 37101 ft 544 kts 75°
2026-04-25 17:43 22.48319 -42.92705 37101 ft 544 kts 76°
2026-04-25 17:43 22.49817 -42.84659 37099 ft 544 kts 76°
2026-04-25 17:44 22.51292 -42.76700 37100 ft 544 kts 76°
2026-04-25 17:44 22.52770 -42.68705 37100 ft 544 kts 76°
2026-04-25 17:45 22.54006 -42.62011 37098 ft 544 kts 76°
2026-04-25 17:45 22.55716 -42.52706 37101 ft 544 kts 75°
2026-04-25 17:46 22.57186 -42.44690 37100 ft 544 kts 76°
2026-04-25 17:46 22.58648 -42.36693 37102 ft 543 kts 75°
2026-04-25 17:47 22.60108 -42.28656 37097 ft 544 kts 76°
2026-04-25 17:47 22.61553 -42.20668 37099 ft 544 kts 76°
2026-04-25 17:48 22.63728 -42.08648 37100 ft 544 kts 76°
2026-04-25 17:49 22.65178 -42.00608 37098 ft 544 kts 76°
2026-04-25 17:49 22.66624 -41.92553 37098 ft 543 kts 76°
2026-04-25 17:50 22.68060 -41.84560 37097 ft 543 kts 76°
2026-04-25 17:50 22.69494 -41.76539 37097 ft 544 kts 76°
2026-04-25 17:51 22.70925 -41.68510 37097 ft 544 kts 76°
2026-04-25 17:51 22.72349 -41.60490 37098 ft 544 kts 76°
2026-04-25 17:52 22.73778 -41.52438 37097 ft 545 kts 76°
2026-04-25 17:52 22.75201 -41.44374 37097 ft 545 kts 76°
2026-04-25 17:53 22.76613 -41.36351 37097 ft 546 kts 75°
2026-04-25 17:53 22.78026 -41.28289 37095 ft 546 kts 76°
2026-04-25 17:54 22.79437 -41.20184 37097 ft 546 kts 76°
2026-04-25 17:54 22.80839 -41.12141 37096 ft 546 kts 76°
2026-04-25 17:55 22.82245 -41.04053 37098 ft 546 kts 76°
2026-04-25 17:55 22.83649 -40.95956 37098 ft 547 kts 76°
2026-04-25 17:56 22.85041 -40.87912 37099 ft 547 kts 76°
2026-04-25 17:56 22.86436 -40.79817 37099 ft 547 kts 76°
2026-04-25 17:57 22.87828 -40.71711 37100 ft 547 kts 76°
2026-04-25 17:57 22.89214 -40.63630 37099 ft 548 kts 76°
2026-04-25 17:58 22.90595 -40.55532 37099 ft 548 kts 76°
2026-04-25 17:58 22.91967 -40.47475 37099 ft 547 kts 76°
2026-04-25 17:59 22.93348 -40.39334 37099 ft 547 kts 76°
2026-04-25 17:59 22.94718 -40.31228 37096 ft 548 kts 76°
2026-04-25 18:00 22.95847 -40.24493 37098 ft 547 kts 76°
2026-04-25 18:00 22.97441 -40.15011 37099 ft 548 kts 76°
2026-04-25 18:01 22.98596 -40.06822 37098 ft 553 kts 82°
2026-04-25 18:01 22.98724 -39.98519 37099 ft 557 kts 91°
2026-04-25 18:02 22.97681 -39.90183 37096 ft 559 kts 102°
2026-04-25 18:02 22.95766 -39.82001 37099 ft 559 kts 105°
2026-04-25 18:03 22.93764 -39.73885 37099 ft 558 kts 104°
2026-04-25 18:03 22.91801 -39.65754 37099 ft 559 kts 104°
2026-04-25 18:04 22.89849 -39.57604 37100 ft 559 kts 104°
2026-04-25 18:04 22.87905 -39.49472 37100 ft 559 kts 104°
2026-04-25 18:05 22.85959 -39.41353 37099 ft 558 kts 104°
2026-04-25 18:05 22.84003 -39.33195 37095 ft 558 kts 104°
2026-04-25 18:06 22.82056 -39.25085 37098 ft 558 kts 104°
2026-04-25 18:06 22.79943 -39.16313 37096 ft 557 kts 104°
2026-04-25 18:07 22.77985 -39.08214 37095 ft 557 kts 104°
2026-04-25 18:07 22.76019 -39.00110 37094 ft 557 kts 104°
2026-04-25 18:08 22.74059 -38.92048 37092 ft 554 kts 104°
2026-04-25 18:08 22.72111 -38.84053 37095 ft 545 kts 104°
2026-04-25 18:09 22.70167 -38.76098 37095 ft 545 kts 104°
2026-04-25 18:09 22.68242 -38.68241 37094 ft 545 kts 104°
2026-04-25 18:10 22.66287 -38.60268 37095 ft 545 kts 104°
2026-04-25 18:10 22.64355 -38.52410 37093 ft 544 kts 104°
2026-04-25 18:11 22.62404 -38.44510 37095 ft 545 kts 104°
2026-04-25 18:11 22.60452 -38.36606 37097 ft 545 kts 104°
2026-04-25 18:12 22.58502 -38.28711 37095 ft 545 kts 104°
2026-04-25 18:12 22.56552 -38.20815 37097 ft 544 kts 105°
2026-04-25 18:13 22.54581 -38.12887 37099 ft 545 kts 104°
2026-04-25 18:13 22.52625 -38.05053 37099 ft 544 kts 104°
2026-04-25 18:14 22.49668 -37.93217 37098 ft 544 kts 104°
2026-04-25 18:14 22.47697 -37.85357 37099 ft 544 kts 104°
2026-04-25 18:15 22.45713 -37.77460 37098 ft 545 kts 104°
2026-04-25 18:15 22.43730 -37.69588 37097 ft 545 kts 104°
2026-04-25 18:16 22.41738 -37.61700 37094 ft 545 kts 104°
2026-04-25 18:17 22.38759 -37.49926 37094 ft 545 kts 104°
2026-04-25 18:17 22.36757 -37.42032 37094 ft 545 kts 104°
2026-04-25 18:18 22.34747 -37.34127 37091 ft 545 kts 105°
2026-04-25 18:18 22.32747 -37.26250 37088 ft 546 kts 105°
2026-04-25 18:19 22.30729 -37.18334 37090 ft 547 kts 104°
2026-04-25 18:19 22.28719 -37.10474 37088 ft 547 kts 105°
2026-04-25 18:20 22.26684 -37.02549 37084 ft 547 kts 104°
2026-04-25 18:20 22.24656 -36.94652 37083 ft 547 kts 104°
2026-04-25 18:21 22.22614 -36.86738 37082 ft 547 kts 105°
2026-04-25 18:21 22.20584 -36.78879 37082 ft 546 kts 104°
2026-04-25 18:22 22.18546 -36.70988 37080 ft 547 kts 105°
2026-04-25 18:22 22.16509 -36.63146 37079 ft 546 kts 105°
2026-04-25 18:23 22.14464 -36.55277 37077 ft 545 kts 104°
2026-04-25 18:23 22.12426 -36.47440 37081 ft 546 kts 105°
2026-04-25 18:24 22.10372 -36.39576 37081 ft 546 kts 104°
2026-04-25 18:24 22.08310 -36.31690 37076 ft 546 kts 105°
2026-04-25 18:25 22.06265 -36.23850 37078 ft 546 kts 105°
2026-04-25 18:25 22.04204 -36.15992 37079 ft 546 kts 105°
2026-04-25 18:26 22.02134 -36.08135 37079 ft 546 kts 105°
2026-04-25 18:26 22.00018 -36.00260 37079 ft 546 kts 108°
2026-04-25 18:27 21.97445 -35.92610 37078 ft 546 kts 110°
2026-04-25 18:27 21.94734 -35.84978 37077 ft 546 kts 111°
2026-04-25 18:28 21.92036 -35.77361 37077 ft 546 kts 111°
2026-04-25 18:28 21.89342 -35.69748 37075 ft 547 kts 111°
2026-04-25 18:29 21.85242 -35.58296 37075 ft 547 kts 110°
2026-04-25 18:30 21.79829 -35.43057 37076 ft 546 kts 111°
2026-04-25 18:30 21.77114 -35.35408 37077 ft 547 kts 110°
2026-04-25 18:31 21.74412 -35.27800 37074 ft 548 kts 111°
2026-04-25 18:31 21.71708 -35.20187 37076 ft 547 kts 111°
2026-04-25 18:32 21.68988 -35.12565 37077 ft 547 kts 111°
2026-04-25 18:32 21.66263 -35.04949 37076 ft 547 kts 111°
2026-04-25 18:33 21.63534 -34.97331 37075 ft 547 kts 111°
2026-04-25 18:33 21.60803 -34.89719 37078 ft 547 kts 111°
2026-04-25 18:34 21.58079 -34.82149 37079 ft 546 kts 111°
2026-04-25 18:34 21.55351 -34.74569 37079 ft 545 kts 111°
2026-04-25 18:35 21.52617 -34.66995 37079 ft 546 kts 111°
2026-04-25 18:35 21.49865 -34.59376 37078 ft 545 kts 111°
2026-04-25 18:36 21.47125 -34.51804 37079 ft 545 kts 111°
2026-04-25 18:36 21.44391 -34.44266 37079 ft 546 kts 111°
2026-04-25 18:37 21.41633 -34.36665 37080 ft 546 kts 111°
2026-04-25 18:37 21.38903 -34.29135 37076 ft 546 kts 111°
2026-04-25 18:38 21.36146 -34.21542 37079 ft 546 kts 111°
2026-04-25 18:38 21.33391 -34.13987 37080 ft 545 kts 111°
2026-04-25 18:39 21.30629 -34.06421 37080 ft 545 kts 111°
2026-04-25 18:39 21.27857 -33.98850 37080 ft 546 kts 111°
2026-04-25 18:40 21.25098 -33.91323 37078 ft 545 kts 111°
2026-04-25 18:40 21.22320 -33.83761 37077 ft 545 kts 111°
2026-04-25 18:41 21.19548 -33.76224 37075 ft 545 kts 111°
2026-04-25 18:41 21.16769 -33.68679 37077 ft 545 kts 111°
2026-04-25 18:42 21.14922 -33.63663 37075 ft 545 kts 111°
2026-04-25 18:42 21.11210 -33.53619 37078 ft 546 kts 111°
2026-04-25 18:43 21.08426 -33.46093 37074 ft 546 kts 111°
2026-04-25 18:43 21.05626 -33.38536 37075 ft 546 kts 111°
2026-04-25 18:44 21.02837 -33.31014 37072 ft 545 kts 112°
2026-04-25 18:44 21.00043 -33.23472 37076 ft 545 kts 111°
2026-04-25 18:45 20.97257 -33.15976 37075 ft 545 kts 112°
2026-04-25 18:45 20.94454 -33.08461 37074 ft 545 kts 111°
2026-04-25 18:46 20.91650 -33.00949 37075 ft 544 kts 112°
2026-04-25 18:46 20.88853 -32.93493 37072 ft 544 kts 112°
2026-04-25 18:47 20.86013 -32.86000 37075 ft 544 kts 112°
2026-04-25 18:47 20.83184 -32.78508 37075 ft 545 kts 112°
2026-04-25 18:48 20.80361 -32.71005 37074 ft 544 kts 112°
2026-04-25 18:48 20.77539 -32.63504 37074 ft 544 kts 112°
2026-04-25 18:49 20.74717 -32.56022 37074 ft 544 kts 112°
2026-04-25 18:49 20.71889 -32.48528 37073 ft 544 kts 112°
2026-04-25 18:50 20.69071 -32.41083 37071 ft 544 kts 112°
2026-04-25 18:50 20.66245 -32.33613 37068 ft 544 kts 112°
2026-04-25 18:51 20.63885 -32.27363 37071 ft 544 kts 112°
2026-04-25 18:51 20.60586 -32.18649 37070 ft 543 kts 112°
2026-04-25 18:52 20.57750 -32.11192 37071 ft 543 kts 112°
2026-04-25 18:52 20.54924 -32.03770 37070 ft 543 kts 112°
2026-04-25 18:53 20.52083 -31.96323 37070 ft 543 kts 112°
2026-04-25 18:53 20.49245 -31.88891 37069 ft 543 kts 112°
2026-04-25 18:54 20.44962 -31.77694 37066 ft 542 kts 112°
2026-04-25 18:55 20.42055 -31.70318 37066 ft 542 kts 114°
2026-04-25 18:55 20.38872 -31.63056 37064 ft 542 kts 115°
2026-04-25 18:56 20.35666 -31.55804 37064 ft 542 kts 115°
2026-04-25 18:56 20.32464 -31.48547 37064 ft 542 kts 115°
2026-04-25 18:57 20.29264 -31.41284 37064 ft 541 kts 115°
2026-04-25 18:57 20.26070 -31.34042 37060 ft 542 kts 115°
2026-04-25 18:58 20.22891 -31.26806 37064 ft 542 kts 115°
2026-04-25 18:58 20.18093 -31.15927 37061 ft 541 kts 115°
2026-04-25 18:59 20.11691 -31.01480 37059 ft 541 kts 115°
2026-04-25 19:00 20.06855 -30.90599 37059 ft 542 kts 115°
2026-04-25 19:01 20.02032 -30.79759 37059 ft 542 kts 116°
2026-04-25 19:01 19.98832 -30.72579 37061 ft 542 kts 115°
2026-04-25 19:02 19.93997 -30.61755 37055 ft 540 kts 115°
2026-04-25 19:03 19.90245 -30.53371 37057 ft 539 kts 116°
2026-04-25 19:03 19.85928 -30.43823 37057 ft 540 kts 115°
2026-04-25 19:04 19.81085 -30.33080 37050 ft 538 kts 116°
2026-04-25 19:05 19.74651 -30.18732 37053 ft 538 kts 116°
2026-04-25 19:06 19.71420 -30.11562 37051 ft 538 kts 116°
2026-04-25 19:06 19.66582 -30.00845 37051 ft 537 kts 116°
2026-04-25 19:07 19.61765 -29.90199 37045 ft 536 kts 116°
2026-04-25 19:08 19.56924 -29.79521 37048 ft 536 kts 116°
2026-04-25 19:09 19.50990 -29.66458 37054 ft 536 kts 116°
2026-04-25 19:10 19.45610 -29.54635 37051 ft 535 kts 116°
2026-04-25 19:10 19.42366 -29.47523 37047 ft 534 kts 116°
2026-04-25 19:11 19.39155 -29.40495 37041 ft 534 kts 116°
2026-04-25 19:11 19.35911 -29.33395 37036 ft 533 kts 116°
2026-04-25 19:12 19.32701 -29.26346 37036 ft 533 kts 116°
2026-04-25 19:12 19.29481 -29.19299 37037 ft 532 kts 116°
2026-04-25 19:13 19.26256 -29.12264 37035 ft 532 kts 117°
2026-04-25 19:13 19.23025 -29.05233 37036 ft 531 kts 117°
2026-04-25 19:14 19.19805 -28.98232 37025 ft 530 kts 117°
2026-04-25 19:14 19.16579 -28.91230 37029 ft 531 kts 117°
2026-04-25 19:15 19.13345 -28.84213 37025 ft 531 kts 117°
2026-04-25 19:15 19.10115 -28.77213 37023 ft 530 kts 117°
2026-04-25 19:16 19.06891 -28.70244 37020 ft 529 kts 117°
2026-04-25 19:16 19.03647 -28.63238 37018 ft 529 kts 117°
2026-04-25 19:17 19.00425 -28.56282 37020 ft 529 kts 117°
2026-04-25 19:17 18.97186 -28.49297 37023 ft 529 kts 117°
2026-04-25 19:18 18.93953 -28.42332 37024 ft 528 kts 117°
2026-04-25 19:18 18.90694 -28.35328 37023 ft 528 kts 117°
2026-04-25 19:19 18.87456 -28.28391 37022 ft 527 kts 117°
2026-04-25 19:19 18.84212 -28.21465 37022 ft 528 kts 117°
2026-04-25 19:20 18.80971 -28.14529 37020 ft 527 kts 117°
2026-04-25 19:20 18.77716 -28.07565 37019 ft 526 kts 117°
2026-04-25 19:21 18.74468 -28.00619 37019 ft 526 kts 117°
2026-04-25 19:21 18.69585 -27.90203 37017 ft 527 kts 117°
2026-04-25 19:22 18.66346 -27.83293 37017 ft 526 kts 117°
2026-04-25 19:23 18.61479 -27.72933 37017 ft 526 kts 117°
2026-04-25 19:23 18.56616 -27.62598 37017 ft 525 kts 117°
2026-04-25 19:24 18.53359 -27.55690 37016 ft 525 kts 117°
2026-04-25 19:25 18.46869 -27.41942 37016 ft 525 kts 117°
2026-04-25 19:25 18.43615 -27.35061 37017 ft 526 kts 117°
2026-04-25 19:26 18.40383 -27.28207 37016 ft 524 kts 117°
2026-04-25 19:26 18.37141 -27.21343 37019 ft 524 kts 117°
2026-04-25 19:27 18.34432 -27.15622 37018 ft 524 kts 118°
2026-04-25 19:27 18.30654 -27.07669 37017 ft 523 kts 118°
2026-04-25 19:28 18.27387 -27.00800 37017 ft 523 kts 118°
2026-04-25 19:28 18.24150 -26.94000 37016 ft 523 kts 118°
2026-04-25 19:29 18.20901 -26.87184 37016 ft 522 kts 118°
2026-04-25 19:29 18.17639 -26.80343 37014 ft 522 kts 118°
2026-04-25 19:30 18.14388 -26.73537 37012 ft 522 kts 118°
2026-04-25 19:30 18.11136 -26.66738 37012 ft 521 kts 118°
2026-04-25 19:31 18.07859 -26.59893 37011 ft 521 kts 118°
2026-04-25 19:31 18.04602 -26.53099 37009 ft 522 kts 118°
2026-04-25 19:32 18.01341 -26.46305 37003 ft 521 kts 118°
2026-04-25 19:32 17.99168 -26.41778 36998 ft 521 kts 118°
2026-04-25 19:33 17.94823 -26.32732 36995 ft 521 kts 118°
2026-04-25 19:33 17.91572 -26.25943 36996 ft 520 kts 118°
2026-04-25 19:34 17.88298 -26.19157 36998 ft 520 kts 118°
2026-04-25 19:34 17.85011 -26.12398 36995 ft 520 kts 118°
2026-04-25 19:35 17.81718 -26.05583 36996 ft 520 kts 118°
2026-04-25 19:35 17.78404 -25.98858 36998 ft 518 kts 120°
2026-04-25 19:36 17.74948 -25.92270 36997 ft 518 kts 120°
2026-04-25 19:36 17.71457 -25.85630 36996 ft 518 kts 120°
2026-04-25 19:37 17.68001 -25.79021 36997 ft 518 kts 120°
2026-04-25 19:37 17.64550 -25.72411 36996 ft 518 kts 120°
2026-04-25 19:38 17.61074 -25.65754 36996 ft 518 kts 120°
2026-04-25 19:38 17.57611 -25.59127 36996 ft 518 kts 120°
2026-04-25 19:39 17.54139 -25.52490 36996 ft 517 kts 120°
2026-04-25 19:39 17.50695 -25.45917 36995 ft 517 kts 120°
2026-04-25 19:40 17.47218 -25.39286 36995 ft 517 kts 120°
2026-04-25 19:40 17.43787 -25.32743 36991 ft 517 kts 120°
2026-04-25 19:41 17.40333 -25.26133 36993 ft 516 kts 120°
2026-04-25 19:41 17.38038 -25.21752 36993 ft 516 kts 120°
2026-04-25 19:42 17.33407 -25.12941 36993 ft 516 kts 121°
2026-04-25 19:42 17.29931 -25.06344 36994 ft 516 kts 121°
2026-04-25 19:43 17.26480 -24.99803 36993 ft 516 kts 120°
2026-04-25 19:43 17.23010 -24.93228 36995 ft 516 kts 121°
2026-04-25 19:44 17.19527 -24.86641 36992 ft 517 kts 120°
2026-04-25 19:44 17.16053 -24.80074 36991 ft 516 kts 121°
2026-04-25 19:45 17.12555 -24.73468 36991 ft 516 kts 121°
2026-04-25 19:45 17.09086 -24.66925 36990 ft 517 kts 120°
2026-04-25 19:46 17.05609 -24.60372 36989 ft 516 kts 121°
2026-04-25 19:46 17.02167 -24.53891 36987 ft 516 kts 121°
2026-04-25 19:47 16.98680 -24.47330 36980 ft 516 kts 120°
2026-04-25 19:47 16.95194 -24.40778 36977 ft 516 kts 121°
2026-04-25 19:48 16.91675 -24.34170 36974 ft 515 kts 121°
2026-04-25 19:48 16.88195 -24.27630 36974 ft 516 kts 121°
2026-04-25 19:49 16.85875 -24.23305 36975 ft 516 kts 121°
2026-04-25 19:49 16.81189 -24.14567 36975 ft 517 kts 121°
2026-04-25 19:50 16.75936 -24.04746 36976 ft 516 kts 121°
2026-04-25 19:51 16.72436 -23.98212 36975 ft 516 kts 121°
2026-04-25 19:51 16.68954 -23.91715 36975 ft 516 kts 121°
2026-04-25 19:52 16.65448 -23.85176 36973 ft 515 kts 121°
2026-04-25 19:52 16.61953 -23.78672 36974 ft 515 kts 121°
2026-04-25 19:53 16.58473 -23.72193 36973 ft 515 kts 121°
2026-04-25 19:53 16.54981 -23.65701 36972 ft 514 kts 121°
2026-04-25 19:54 16.51474 -23.59185 36970 ft 513 kts 121°
2026-04-25 19:54 16.47978 -23.52701 36969 ft 513 kts 121°
2026-04-25 19:55 16.44475 -23.46209 36968 ft 513 kts 121°
2026-04-25 19:55 16.40981 -23.39741 36965 ft 513 kts 121°
2026-04-25 19:56 16.37471 -23.33240 36960 ft 513 kts 121°
2026-04-25 19:56 16.33976 -23.26745 36962 ft 513 kts 121°
2026-04-25 19:57 16.30477 -23.20263 36957 ft 513 kts 121°
2026-04-25 19:57 16.26990 -23.13826 36956 ft 512 kts 121°
2026-04-25 19:58 16.23486 -23.07364 36954 ft 513 kts 121°
2026-04-25 19:58 16.19978 -23.00897 36954 ft 513 kts 121°
2026-04-25 19:59 16.16454 -22.94411 36952 ft 512 kts 121°
2026-04-25 19:59 16.12928 -22.87925 36954 ft 512 kts 121°
2026-04-25 20:00 16.09478 -22.81454 36955 ft 512 kts 121°
2026-04-25 20:00 16.06045 -22.74974 36954 ft 512 kts 121°
2026-04-25 20:01 16.00878 -22.65248 36955 ft 512 kts 121°
2026-04-25 20:01 15.97420 -22.58751 36956 ft 512 kts 121°
2026-04-25 20:02 15.93973 -22.52289 36958 ft 512 kts 121°
2026-04-25 20:02 15.90527 -22.45826 36955 ft 511 kts 120°
2026-04-25 20:03 15.87052 -22.39359 36951 ft 511 kts 121°
2026-04-25 20:03 15.83592 -22.32922 36943 ft 511 kts 121°
2026-04-25 20:04 15.80173 -22.26513 36944 ft 510 kts 121°
2026-04-25 20:04 15.76712 -22.20034 36944 ft 511 kts 121°
2026-04-25 20:05 15.73269 -22.13605 36941 ft 510 kts 121°
2026-04-25 20:05 15.69816 -22.07163 36939 ft 510 kts 121°
2026-04-25 20:06 15.66371 -22.00743 36937 ft 509 kts 121°
2026-04-25 20:06 15.62905 -21.94288 36936 ft 508 kts 121°
2026-04-25 20:07 15.59459 -21.87880 36935 ft 509 kts 121°
2026-04-25 20:07 15.56009 -21.81468 36935 ft 509 kts 121°
2026-04-25 20:08 15.52577 -21.75098 36934 ft 509 kts 121°
2026-04-25 20:08 15.49106 -21.68659 36935 ft 509 kts 121°
2026-04-25 20:09 15.45661 -21.62273 36935 ft 509 kts 121°
2026-04-25 20:09 15.42206 -21.55873 36934 ft 508 kts 121°
2026-04-25 20:10 15.38767 -21.49509 36931 ft 508 kts 121°
2026-04-25 20:10 15.35311 -21.43121 36927 ft 508 kts 121°
2026-04-25 20:11 15.31868 -21.36764 36926 ft 507 kts 120°
2026-04-25 20:11 15.28425 -21.30389 36922 ft 508 kts 121°
2026-04-25 20:12 15.24977 -21.24000 36924 ft 508 kts 121°
2026-04-25 20:12 15.22680 -21.19758 36923 ft 507 kts 121°
2026-04-25 20:13 15.18079 -21.11281 36922 ft 507 kts 121°
2026-04-25 20:13 15.14629 -21.04933 36918 ft 507 kts 121°
2026-04-25 20:14 15.11167 -20.98569 36918 ft 507 kts 121°
2026-04-25 20:14 15.07709 -20.92222 36917 ft 507 kts 121°
2026-04-25 20:15 15.04236 -20.85850 36915 ft 507 kts 121°
2026-04-25 20:15 15.00792 -20.79537 36913 ft 507 kts 121°
2026-04-25 20:16 14.97329 -20.73191 36914 ft 506 kts 121°
2026-04-25 20:16 14.93861 -20.66844 36913 ft 505 kts 121°
2026-04-25 20:17 14.90404 -20.60523 36913 ft 505 kts 121°
2026-04-25 20:17 14.86948 -20.54252 36913 ft 505 kts 121°
2026-04-25 20:18 14.83474 -20.47944 36913 ft 505 kts 121°
2026-04-25 20:18 14.80011 -20.41628 36913 ft 504 kts 120°
2026-04-25 20:19 14.76568 -20.35335 36911 ft 503 kts 120°
2026-04-25 20:19 14.73135 -20.29042 36908 ft 504 kts 121°
2026-04-25 20:20 14.69804 -20.22685 36906 ft 504 kts 117°
2026-04-25 20:20 14.67097 -20.15996 36901 ft 505 kts 109°
2026-04-25 20:21 14.64878 -20.09089 36897 ft 505 kts 108°
2026-04-25 20:21 14.62696 -20.02202 36893 ft 505 kts 108°
2026-04-25 20:22 14.61238 -19.97630 36892 ft 505 kts 108°
2026-04-25 20:22 14.58302 -19.88468 36894 ft 504 kts 108°
2026-04-25 20:23 14.56094 -19.81598 36901 ft 504 kts 108°
2026-04-25 20:23 14.53884 -19.74731 36906 ft 504 kts 108°
2026-04-25 20:24 14.51684 -19.67903 36905 ft 504 kts 108°
2026-04-25 20:24 14.49473 -19.61055 36906 ft 504 kts 108°
2026-04-25 20:25 14.47249 -19.54165 36903 ft 504 kts 108°
2026-04-25 20:25 14.45045 -19.47347 36903 ft 503 kts 108°
2026-04-25 20:26 14.42815 -19.40457 36902 ft 504 kts 108°
2026-04-25 20:26 14.40587 -19.33583 36897 ft 504 kts 108°
2026-04-25 20:27 14.38380 -19.26743 36897 ft 503 kts 108°
2026-04-25 20:27 14.36169 -19.19914 36897 ft 504 kts 108°
2026-04-25 20:28 14.33946 -19.13065 36895 ft 504 kts 108°
2026-04-25 20:28 14.31707 -19.06183 36894 ft 504 kts 109°
2026-04-25 20:29 14.29477 -18.99336 36894 ft 504 kts 108°
2026-04-25 20:29 14.27237 -18.92468 36891 ft 503 kts 108°
2026-04-25 20:30 14.25016 -18.85663 36890 ft 503 kts 108°
2026-04-25 20:30 14.22772 -18.78794 36889 ft 502 kts 108°
2026-04-25 20:31 14.20551 -18.72010 36888 ft 502 kts 108°
2026-04-25 20:31 14.18315 -18.65182 36885 ft 503 kts 108°
2026-04-25 20:32 14.16072 -18.58338 36884 ft 503 kts 108°
2026-04-25 20:32 14.13834 -18.51519 36883 ft 503 kts 108°
2026-04-25 20:33 14.11594 -18.44699 36883 ft 503 kts 108°
2026-04-25 20:33 14.09730 -18.39026 36881 ft 502 kts 108°
2026-04-25 20:34 14.07552 -18.30980 36868 ft 500 kts 94°
2026-04-25 20:34 14.07549 -18.27432 36870 ft 496 kts 82°
2026-04-25 20:34 14.08227 -18.23977 36871 ft 492 kts 70°
2026-04-25 20:35 14.09542 -18.20780 36872 ft 487 kts 57°
2026-04-25 20:35 14.11458 -18.17911 36874 ft 482 kts 45°
2026-04-25 20:35 14.13853 -18.15544 36875 ft 475 kts 33°
2026-04-25 20:35 14.16599 -18.13693 36880 ft 471 kts 26°
2026-04-25 20:36 14.22399 -18.10463 36874 ft 471 kts 24°
2026-04-25 20:36 14.28219 -18.07327 36873 ft 472 kts 24°
2026-04-25 20:37 14.34062 -18.04169 36872 ft 472 kts 24°
2026-04-25 20:37 14.39902 -18.01002 36871 ft 472 kts 24°
2026-04-25 20:38 14.45714 -17.97845 36871 ft 472 kts 23°
2026-04-25 20:38 14.51553 -17.94670 36868 ft 472 kts 24°
2026-04-25 20:39 14.57377 -17.91501 36868 ft 472 kts 24°
2026-04-25 20:39 14.62228 -17.88859 36867 ft 473 kts 24°
2026-04-25 20:40 14.69045 -17.85145 36866 ft 473 kts 24°
2026-04-25 20:40 14.74919 -17.81937 36869 ft 474 kts 24°
2026-04-25 20:41 14.80631 -17.78561 36855 ft 479 kts 33°
2026-04-25 20:41 14.83098 -17.76192 36862 ft 486 kts 45°
2026-04-25 20:41 14.85074 -17.73324 36862 ft 492 kts 57°
2026-04-25 20:42 14.86462 -17.70088 36862 ft 498 kts 70°
2026-04-25 20:42 14.87206 -17.66604 36864 ft 501 kts 82°
2026-04-25 20:42 14.87265 -17.63001 36868 ft 504 kts 94°
2026-04-25 20:42 14.86625 -17.59442 36864 ft 505 kts 106°
2026-04-25 20:43 14.84076 -17.52701 36871 ft 505 kts 113°
2026-04-25 20:43 14.81248 -17.46073 36872 ft 505 kts 114°
2026-04-25 20:44 14.78396 -17.39452 36181 ft 506 kts 114°
2026-04-25 20:44 14.76950 -17.36126 35528 ft 507 kts 114°
2026-04-25 20:44 14.75494 -17.32798 34875 ft 508 kts 114°
2026-04-25 20:45 14.74048 -17.29504 34236 ft 511 kts 114°
2026-04-25 20:45 14.72567 -17.26139 33588 ft 510 kts 114°
2026-04-25 20:45 14.71113 -17.22856 32958 ft 509 kts 114°
2026-04-25 20:45 14.69622 -17.19520 32364 ft 507 kts 114°
2026-04-25 20:46 14.68157 -17.16256 31815 ft 505 kts 114°
2026-04-25 20:46 14.66675 -17.12976 31257 ft 503 kts 114°
2026-04-25 20:46 14.65195 -17.09713 30700 ft 499 kts 114°
2026-04-25 20:46 14.63735 -17.06513 30154 ft 495 kts 114°
2026-04-25 20:47 14.62272 -17.03311 29604 ft 492 kts 114°
2026-04-25 20:47 14.60822 -17.00146 29055 ft 488 kts 114°
2026-04-25 20:47 14.59367 -16.96987 28510 ft 485 kts 114°
2026-04-25 20:47 14.57933 -16.93873 27991 ft 481 kts 114°
2026-04-25 20:48 14.56508 -16.90769 27505 ft 476 kts 114°
2026-04-25 20:48 14.55105 -16.87694 27019 ft 471 kts 114°
2026-04-25 20:48 14.53726 -16.84656 26535 ft 467 kts 114°
2026-04-25 20:48 14.52360 -16.81635 26050 ft 462 kts 114°
2026-04-25 20:49 14.51015 -16.78646 25565 ft 458 kts 114°
2026-04-25 20:49 14.49692 -16.75720 25083 ft 453 kts 116°
2026-04-25 20:49 14.48007 -16.73003 24584 ft 448 kts 130°
2026-04-25 20:49 14.45771 -16.70798 24095 ft 442 kts 144°
2026-04-25 20:50 14.43125 -16.69239 23611 ft 435 kts 159°
2026-04-25 20:50 14.40218 -16.68417 23135 ft 427 kts 174°
2026-04-25 20:50 14.37255 -16.68282 22672 ft 421 kts 182°
2026-04-25 20:50 14.34373 -16.68367 22204 ft 416 kts 184°
2026-04-25 20:51 14.31461 -16.68500 21739 ft 412 kts 185°
2026-04-25 20:51 14.28668 -16.68878 21270 ft 406 kts 192°
2026-04-25 20:51 14.25888 -16.69465 20811 ft 402 kts 194°
2026-04-25 20:51 14.23186 -16.70067 20356 ft 399 kts 194°
2026-04-25 20:52 14.20479 -16.70675 19891 ft 396 kts 194°
2026-04-25 20:52 14.18681 -16.71078 19579 ft 393 kts 194°
2026-04-25 20:52 14.15112 -16.71875 18954 ft 389 kts 194°
2026-04-25 20:52 14.12488 -16.72454 18495 ft 386 kts 194°
2026-04-25 20:53 14.09846 -16.73029 18012 ft 383 kts 194°
2026-04-25 20:53 14.07237 -16.73588 17558 ft 380 kts 194°
2026-04-25 20:53 14.04721 -16.74308 17072 ft 374 kts 207°
2026-04-25 20:53 14.02599 -16.75776 16619 ft 366 kts 227°
2026-04-25 20:54 14.01151 -16.77882 16175 ft 360 kts 247°
2026-04-25 20:54 14.00289 -16.80275 15748 ft 356 kts 252°
2026-04-25 20:54 13.99563 -16.82706 15273 ft 354 kts 253°
2026-04-25 20:54 13.98883 -16.85102 14703 ft 349 kts 254°
2026-04-25 20:55 13.98232 -16.87463 14213 ft 338 kts 254°
2026-04-25 20:55 13.97681 -16.89777 13688 ft 329 kts 264°
2026-04-25 20:55 13.97949 -16.92053 13148 ft 323 kts 289°
2026-04-25 20:55 13.99005 -16.94052 12688 ft 315 kts 308°
2026-04-25 20:56 14.00502 -16.95670 12328 ft 305 kts 315°
2026-04-25 20:56 14.02010 -16.97181 11978 ft 303 kts 314°
2026-04-25 20:56 14.03508 -16.98745 11648 ft 305 kts 313°
2026-04-25 20:56 14.04973 -17.00291 11285 ft 304 kts 314°
2026-04-25 20:57 14.06474 -17.01850 10923 ft 303 kts 315°
2026-04-25 20:57 14.08147 -17.03109 10567 ft 302 kts 334°
2026-04-25 20:57 14.10076 -17.03964 10212 ft 301 kts 334°
2026-04-25 20:57 14.11776 -17.05209 9849 ft 298 kts 313°
2026-04-25 20:58 14.13273 -17.06664 9525 ft 295 kts 328°
2026-04-25 20:58 14.15201 -17.07281 9203 ft 292 kts 358°
2026-04-25 20:58 14.17221 -17.07192 8906 ft 290 kts
2026-04-25 20:58 14.19236 -17.07033 8574 ft 289 kts
2026-04-25 20:59 14.21259 -17.06927 8272 ft 287 kts
2026-04-25 20:59 14.23243 -17.06876 7847 ft 290 kts
2026-04-25 20:59 14.25311 -17.06856 7119 ft 303 kts
2026-04-25 20:59 14.27443 -17.06859 6433 ft 312 kts
2026-04-25 21:00 14.29618 -17.06873 5976 ft 312 kts 360°
2026-04-25 21:00 14.30347 -17.06879 5890 ft 309 kts
2026-04-25 21:00 14.35797 -17.06935 5171 ft 270 kts 359°
2026-04-25 21:01 14.37634 -17.06972 4931 ft 256 kts 359°
2026-04-25 21:01 14.39378 -17.07003 4924 ft 242 kts 359°
2026-04-25 21:01 14.41027 -17.07026 4841 ft 233 kts 360°
2026-04-25 21:01 14.42638 -17.07043 4601 ft 232 kts 360°
2026-04-25 21:02 14.44260 -17.07059 4304 ft 232 kts
2026-04-25 21:02 14.45881 -17.07074 4007 ft 229 kts
2026-04-25 21:02 14.47453 -17.07090 3705 ft 219 kts
2026-04-25 21:02 14.48945 -17.07105 3428 ft 211 kts
2026-04-25 21:03 14.50391 -17.07120 3155 ft 204 kts
2026-04-25 21:03 14.51788 -17.07134 2894 ft 197 kts
2026-04-25 21:03 14.53152 -17.07146 2634 ft 191 kts
2026-04-25 21:03 14.54450 -17.07158 2394 ft 179 kts
2026-04-25 21:04 14.55668 -17.07169 2190 ft 170 kts
2026-04-25 21:04 14.56813 -17.07180 1944 ft 159 kts
2026-04-25 21:04 14.57882 -17.07191 1733 ft 145 kts
2026-04-25 21:04 14.58848 -17.07199 1550 ft 137 kts
2026-04-25 21:05 14.59807 -17.07209 1383 ft 137 kts
2026-04-25 21:05 14.60770 -17.07219 1211 ft 138 kts 360°
2026-04-25 21:05 14.61734 -17.07228 1037 ft 138 kts 360°
2026-04-25 21:05 14.62705 -17.07237 860 ft 138 kts 359°
2026-04-25 21:06 14.63662 -17.07243 698 ft 139 kts 359°
2026-04-25 21:06 14.64630 -17.07257 518 ft 139 kts 359°
2026-04-25 21:06 14.65611 -17.07267 317 ft 139 kts 358°
2026-04-25 21:06 14.66215 -17.07274 306 ft 117 kts 359°
2026-04-25 21:07 14.66957 -17.07281 314 ft 45 kts 359°
2026-04-25 21:07 14.67287 -17.07283 310 ft 46 kts 359°
2026-04-25 21:07 14.67613 -17.07263 301 ft 46 kts 13°
2026-04-25 21:07 14.67838 -17.07168 294 ft 13 kts 27°
2026-04-25 21:08 14.67846 -17.07164 293 ft 0 kts 27°
2026-04-25 21:08 14.67848 -17.07163 293 ft 1 kts 27°
2026-04-25 21:08 14.67867 -17.07144 292 ft 4 kts 74°
2026-04-25 21:08 14.67849 -17.07117 292 ft 7 kts 143°
2026-04-25 21:09 14.67675 -17.07097 299 ft 17 kts 180°
2026-04-25 21:09 14.67572 -17.07090 301 ft 11 kts 157°
2026-04-25 21:09 14.67531 -17.07032 300 ft 12 kts 117°
2026-04-25 21:10 14.67458 -17.06986 301 ft 13 kts 167°
2026-04-25 21:10 14.67381 -17.06948 302 ft 10 kts 148°
2026-04-25 21:10 14.67319 -17.06908 302 ft 12 kts 147°
2026-04-25 21:10 14.67260 -17.06867 302 ft 8 kts 147°
2026-04-25 21:11 14.67236 -17.06851 303 ft 0 kts 147°
2026-04-25 21:11 14.67235 -17.06851 303 ft 0 kts 147°